Regional Weather Roundup
Issued by NWS Upton, NY

Current Version | Previous Version | Text Only | Print | Product List | Glossary Off
Versions: 1 2 3 4 5 6 7 8 9 10 11 12 13 14 15 16 17 18 19 20 21 22 23 24 25 26 27 28 29 30 31 32 33 34 35 36 37 38 39 40 41 42 43 44 45 46 47 48 49 50
000 ASUS41 KOKX 202308 RWROKX REGIONAL WEATHER ROUNDUP NATIONAL WEATHER SERVICE NEW YORK NY 700 PM EDT FRI OCT 20 2017 NOTE: "FAIR" INDICATES FEW OR NO CLOUDS BELOW 12,000 FEET WITH NO SIGNIFICANT WEATHER AND/OR OBSTRUCTIONS TO VISIBILITY. NYZ071-072-176-178-NJZ106-104-210000- NEW YORK CITY METRO AREA CITY SKY/WX TMP DP RH WIND PRES REMARKS Central Park CLEAR 68 36 30 W5 30.16R Bronx Bot Gard N/A 68 36 30 NW5 30.13R LaGuardia APRT PTCLDY 71 39 31 NW9 30.13R Kennedy INTL PTCLDY 70 36 28 NW9 30.14R Breezy Point N/A 68 N/A N/A NW6 N/A Newark/Liberty PTCLDY 70 35 27 W9 30.14R Teterboro CLEAR 68 36 30 NW8 30.13R $$ NYZ177-179-078>081-210000- LONG ISLAND NEW YORK CITY SKY/WX TMP DP RH WIND PRES REMARKS Jones Beach N/A 68 N/A N/A W3 N/A Matinecock PT N/A 68 N/A N/A NW6 N/A Farmingdale CLEAR 67 38 34 N3 30.13R MacArthur/ISP PTCLDY 59 43 55 CALM 30.13R Shirley CLEAR 60 47 61 CALM 30.13R Mt Sinai Harb N/A N/A N/A N/A N12 N/A Westhampton CLEAR 56 41 57 CALM 30.13R East Hampton FAIR 55 46 72 CALM 30.11R Montauk N/A 66 48 52 NW6 30.11R $$ NYZ052-065-067-210000- HUDSON VALLEY CITY SKY/WX TMP DP RH WIND PRES REMARKS White Plains CLEAR 62 38 40 NW6 30.14R Larchmont Harb N/A 68 N/A N/A NW2 N/A Croton On Huds N/A 68 N/A N/A N2 N/A Newburgh CLEAR 61 45 55 CALM 30.16R Montgomery CLEAR 63 37 38 NW7 30.15R Poughkeepsie CLEAR 57 42 57 SE5 30.14R Albany PTCLDY 60 34 37 W10 30.14R $$ NJZ001-105-106-008-010-013-015-019>022-104-210000- NEW JERSEY CITY SKY/WX TMP DP RH WIND PRES REMARKS Newark/Liberty PTCLDY 70 35 27 W9 30.14R Teterboro CLEAR 68 36 30 NW8 30.13R Caldwell CLEAR 62 42 47 CALM 30.16R Somerville CLEAR 61 42 49 CALM 30.14R Linden FAIR 68 35 29 NW9 30.15R Perth Amboy N/A 70 N/A N/A NW5 N/A Sussex CLEAR 60 40 47 CALM 30.17R Andover N/A 55 46 71 CALM 30.18R Trenton CLEAR 66 37 34 NW5 30.16R Millville CLEAR 57 50 77 W3 30.18R Atlantic City CLEAR 64 45 49 W5 30.17R Wrightstown CLEAR 64 36 36 W3 30.13R Toms River N/A 57 44 62 SW3 30.16R Belmar CLEAR 63 40 42 W3 N/A $$ PAZ047>061-062-071-210000- EASTERN PENNSYLVANIA CITY SKY/WX TMP DP RH WIND PRES REMARKS Philadelphia PTCLDY 70 36 28 W9 30.18R Allentown CLEAR 64 35 34 CALM 30.18R Scranton CLEAR 58 35 42 CALM 30.21R $$ CTZ002-004>006-009-010-012-RIZ004-006-007-MAZ004-011-015-210000- SOUTHERN NEW ENGLAND IN CT CITY SKY/WX TMP DP RH WIND PRES REMARKS Bradley INTL PTCLDY 59 40 49 NW8 30.11R Hartford CLEAR 66 40 38 W6 30.10R Danbury CLEAR 59 40 49 SW3 30.15R Wtrbury/Oxford CLEAR 61 38 42 NW8 30.14R Norwalk Harbor N/A 68 N/A N/A N6 N/A Bridgeport CLEAR 67 35 30 N5 30.12R Meriden CLEAR 62 40 44 NW7 30.12R New Haven PTCLDY 67 38 34 NW6 30.12R Chester FAIR 61 41 48 NW5 30.11R Groton CLEAR 60 44 55 CALM 30.09R Wilimantic CLEAR 60 38 43 N3 30.10R IN RI CITY SKY/WX TMP DP RH WIND PRES REMARKS Providence CLEAR 64 40 41 NW9 30.08R Block Island CLEAR 64 43 46 NW7 30.09R Westerly CLEAR 64 39 39 CALM 30.09R IN MA CITY SKY/WX TMP DP RH WIND PRES REMARKS Boston PTCLDY 66 34 30 W9 30.05R Worcester CLEAR 59 33 37 W8 30.10R Westfield CLEAR 59 39 47 NW6 30.10R Provincetown CLEAR 59 50 72 W3 30.04R Nantucket CLEAR 57 54 89 W6 30.04R $$ ANZ330-335-338-340-345-350-353-355-210000- COASTAL MARINE OBSERVATIONS STATION/POSITION TIME SKY/WX TEMP WIND PRES VSBY WAVE AIR SEA DIR/SP/G HT/PER (UTC) (F) (DEG/KT/KT) (MB) (MI) (FT/S) NY HARB ENTRANCE 2150 68 65 270/ 8/ 10 1019.0 2/ 9 20 S FIRE ISLAND 2150 67 64 300/ 12/ 16 1019.3 3/ 9 GREAT SOUTH BAY 2230 64 62 300/ 2/ 4 N/A 15 E BARNEGAT LI NOT AVBL HUDSON CANYON 2150 66 65 300/ 14/ 16 1018.8 4/ 6 KINGS POINT 2230 70 66 340/ 7/ 9 1020.7 EXECUTION ROCKS 2230 69 260/ 6/ 6 N/A WESTERN LI SOUND 2149 69 340/ 4/ 6 N/A 0 CENTRAL LI SOUND 2215 68 320/ 10/ 12 N/A 2 EASTERN LI SOUND NOT AVBL ROBBINS REEF 2230 71 300/ 12/ 14 1020.7 $$ >>>>>>>>>>>>>>>>>>>>>>>>>>>> KEY <<<<<<<<<<<<<<<<<<<<<<<<<<< > < > SKY/WX - Sky Condition/Present Weather < > TMP - Temperature in Fahrenheit < > DP - Dew Point in Fahrenheit < > RH - Relative Humidity in Percent < > WIND - Direction (from) and Speed in MPH < > PRES - Mean Sea Level Pressure (inches of Hg) < > WCI - Wind Chill Index < > VSB - VISIBILITY IN MILES < > HX - HEAT INDEX < > TC - TEMPERATURE IN CELSIUS < > VRB - VARIABLE WIND DIRECTION < > < >>>>>>>>>>>>>>>>>>>>>>>>>>>> KEY <<<<<<<<<<<<<<<<<<<<<<<<<<<

USA.gov is the U.S. government's official web portal to all federal, state and local government web resources and services.